Sigfox identifier Datetime Temperature Humidity SNR
003A59BD 2019-04-23 15:03:28 15.9 32 23.1
003A59BD 2019-04-23 14:29:37 15.9 32 22.8
003A59BD 2019-04-23 13:55:46 15.8 32 22.6
003A59BD 2019-04-23 13:21:54 15.7 32 22.2
003A59BD 2019-04-23 12:48:03 15.7 32 21.8
003A59BD 2019-04-23 12:14:11 15.5 32 21.7
003A59BD 2019-04-23 11:40:19 15.5 31 21.4
003A59BD 2019-04-23 11:06:28 15.5 31 20.4
003A59BD 2019-04-23 10:32:37 15.5 31 19.7
003A59BD 2019-04-23 09:58:46 15.5 31 18.8
003A59BD 2019-04-23 09:24:54 15.5 31 18.2
003A59BD 2019-04-23 08:51:03 15.5 31 17.7
003A59BD 2019-04-23 08:17:12 15.5 31 16.7
003A59BD 2019-04-23 07:43:22 15.5 31 16.7
003A59BD 2019-04-23 07:09:31 15.5 31 16.8
003A59BD 2019-04-23 06:35:41 15.5 31 16.9
003A59BD 2019-04-23 06:01:51 15.5 31 16.8
003A59BD 2019-04-23 05:28:01 15.5 31 17
003A59BD 2019-04-23 04:54:11 15.5 31 16.9
003A59BD 2019-04-23 04:20:22 15.5 31 17
003A59BD 2019-04-23 03:46:31 15.5 31 16.8
003A59BD 2019-04-23 03:12:41 15.5 31 16.9
003A59BD 2019-04-23 02:38:51 15.5 31 16.9
003A59BD 2019-04-23 02:05:00 15.6 31 17
003A59BD 2019-04-23 01:31:10 15.6 31 17
003A59BD 2019-04-23 00:57:20 15.6 31 17.1
003A59BD 2019-04-23 00:23:30 15.7 31 17.1
003A59BD 2019-04-22 23:49:38 15.7 31 17.1
003A59BD 2019-04-22 23:15:48 15.7 31 17.1
003A59BD 2019-04-22 22:41:55 15.7 31 17.2
003A59BD 2019-04-22 22:08:04 15.7 31 17.3
003A59BD 2019-04-22 21:34:12 15.7 31 17.5
003A59BD 2019-04-22 21:00:21 15.7 31 17.5
003A59BD 2019-04-22 20:26:29 15.7 31 17.5
003A59BD 2019-04-22 19:52:38 15.7 31 17.6
003A59BD 2019-04-22 19:18:47 15.7 31 17.6
003A59BD 2019-04-22 18:44:56 15.7 31 17.7
003A59BD 2019-04-22 18:11:05 15.7 31 17.6
003A59BD 2019-04-22 17:37:13 15.7 31 17.7
003A59BD 2019-04-22 17:03:21 15.7 31 17.7
003A59BD 2019-04-22 16:29:30 15.7 31 17.8
003A59BD 2019-04-22 15:55:38 15.6 31 18
003A59BD 2019-04-22 15:21:46 15.6 31 18
003A59BD 2019-04-22 14:47:55 15.5 31 18.1
003A59BD 2019-04-22 14:14:04 15.6 31 18.1
003A59BD 2019-04-22 13:40:13 15.5 31 18.2
003A59BD 2019-04-22 13:06:22 15.5 31 18.1
003A59BD 2019-04-22 12:32:31 15.5 31 18.2
003A59BD 2019-04-22 11:58:40 15.5 31 18.3
003A59BD 2019-04-22 11:24:50 15.5 31 18.4
003A59BD 2019-04-22 10:50:59 15.5 30 18.5
003A59BD 2019-04-22 10:17:07 15.5 30 18.4
003A59BD 2019-04-22 09:43:16 15.5 30 18.5
003A59BD 2019-04-22 09:09:25 15.5 30 18.5
003A59BD 2019-04-22 08:35:34 15.5 30 18.4
003A59BD 2019-04-22 08:01:43 15.5 30 18.4
003A59BD 2019-04-22 07:27:53 15.5 30 18.4
003A59BD 2019-04-22 06:54:02 15.5 30 18.3
003A59BD 2019-04-22 06:20:11 15.5 30 18.3
003A59BD 2019-04-22 05:46:21 15.5 30 18.4
003A59BD 2019-04-22 05:12:30 15.5 30 18.5
003A59BD 2019-04-22 04:38:39 15.5 30 18.4
003A59BD 2019-04-22 04:04:48 15.5 30 18.5
003A59BD 2019-04-22 03:30:56 15.5 30 18.5
003A59BD 2019-04-22 02:57:05 15.5 30 18.5
003A59BD 2019-04-22 02:23:14 15.5 30 18.5
003A59BD 2019-04-22 01:49:23 15.5 30 18.4
003A59BD 2019-04-22 01:15:32 15.5 30 18.4
003A59BD 2019-04-22 00:41:42 15.4 30 18.3
003A59BD 2019-04-22 00:07:49 15.4 30 18.3
003A59BD 2019-04-21 23:33:58 15.4 30 18.2
003A59BD 2019-04-21 23:00:05 15.5 30 18.3
003A59BD 2019-04-21 22:26:13 15.5 30 18.2
003A59BD 2019-04-21 21:52:20 15.5 30 18.1
003A59BD 2019-04-21 21:18:27 15.5 30 18
003A59BD 2019-04-21 20:44:35 15.5 30 18
003A59BD 2019-04-21 20:10:42 15.3 30 18.3
003A59BD 2019-04-21 19:36:50 15.4 30 18.3
003A59BD 2019-04-21 19:02:57 15.4 30 18.5
003A59BD 2019-04-21 18:29:05 15.4 30 18.6
003A59BD 2019-04-21 17:55:12 15.3 30 18.5
003A59BD 2019-04-21 17:21:20 15.4 30 18.5
003A59BD 2019-04-21 16:47:28 15.3 30 18.6
003A59BD 2019-04-21 16:13:35 15.3 30 18.7
003A59BD 2019-04-21 15:39:42 15.3 30 18.7
003A59BD 2019-04-21 15:05:49 15.3 30 18.8
003A59BD 2019-04-21 14:31:57 15.3 30 18.9
003A59BD 2019-04-21 13:58:04 15.4 30 18.9
003A59BD 2019-04-21 13:24:12 15.3 30 18.8
003A59BD 2019-04-21 12:50:20 15.3 30 18.9
003A59BD 2019-04-21 12:16:28 15.4 29 18.8
003A59BD 2019-04-21 11:42:35 15.5 29 18.9
003A59BD 2019-04-21 11:08:43 15.5 29 18.8
003A59BD 2019-04-21 10:34:52 15.5 29 18.8
003A59BD 2019-04-21 10:01:01 15.5 29 18.9
003A59BD 2019-04-21 09:27:10 15.5 29 19
003A59BD 2019-04-21 08:53:18 15.5 29 18.8
003A59BD 2019-04-21 08:19:25 15.5 29 18.8
003A59BD 2019-04-21 07:45:33 15.5 29 18.8
003A59BD 2019-04-21 07:11:41 15.5 29 18.8
003A59BD 2019-04-21 06:37:49 15.5 29 18.6
003A59BD 2019-04-21 06:03:57 15.5 29 18.4
003A59BD 2019-04-21 05:30:06 15.5 29 18.3
003A59BD 2019-04-21 04:56:14 15.5 29 18.1
003A59BD 2019-04-21 04:22:23 15.5 29 17.9
003A59BD 2019-04-21 03:48:32 15.5 29 17.9
003A59BD 2019-04-21 03:14:42 15.5 29 17.8
003A59BD 2019-04-21 02:40:51 15.5 29 17.6
003A59BD 2019-04-21 02:07:00 15.5 29 17.4
003A59BD 2019-04-21 01:33:08 15.5 29 17.4
003A59BD 2019-04-21 00:59:17 15.5 29 17.3
003A59BD 2019-04-21 00:25:26 15.5 29 17.1
003A59BD 2019-04-20 23:51:36 15.5 29 17.1
003A59BD 2019-04-20 23:17:46 15.6 29 16.9
003A59BD 2019-04-20 22:43:55 15.5 29 16.9
003A59BD 2019-04-20 22:10:03 15.5 29 16.9
003A59BD 2019-04-20 21:36:14 15.5 29 16.8
003A59BD 2019-04-20 21:02:21 15.5 29 16.9
003A59BD 2019-04-20 20:28:31 15.5 29 16.9
003A59BD 2019-04-20 19:54:38 15.5 29 16.8
003A59BD 2019-04-20 19:20:48 15.5 29 16.6
003A59BD 2019-04-20 18:46:56 15.5 29 16.6
003A59BD 2019-04-20 18:13:04 15.5 29 16.7
003A59BD 2019-04-20 17:39:13 15.5 29 16.7
003A59BD 2019-04-20 17:05:23 15.5 29 16.7
003A59BD 2019-04-20 16:31:31 15.5 29 16.6
003A59BD 2019-04-20 15:57:39 15.5 29 16.4
003A59BD 2019-04-20 15:23:48 15.5 29 16.4
003A59BD 2019-04-20 14:49:58 15.5 29 16.3
003A59BD 2019-04-20 14:16:07 15.5 29 16.3
003A59BD 2019-04-20 13:42:16 15.5 29 16.3
003A59BD 2019-04-20 13:08:25 15.5 28 16.3
003A59BD 2019-04-20 12:34:33 15.5 28 16.3
003A59BD 2019-04-20 12:00:44 15.5 28 16.3
003A59BD 2019-04-20 11:26:52 15.5 28 16.3
003A59BD 2019-04-20 10:53:01 15.6 28 16.1
003A59BD 2019-04-20 10:19:12 15.6 28 16.1
003A59BD 2019-04-20 09:45:22 15.7 28 16
003A59BD 2019-04-20 09:11:33 15.6 28 15.9
003A59BD 2019-04-20 08:37:43 15.7 28 15.8
003A59BD 2019-04-20 08:03:53 15.7 28 15.9
003A59BD 2019-04-20 07:30:02 15.7 28 15.9
003A59BD 2019-04-20 06:56:10 15.7 28 15.8
003A59BD 2019-04-20 06:22:19 15.7 28 15.6
003A59BD 2019-04-20 05:48:28 15.7 28 15.4
003A59BD 2019-04-20 05:14:40 15.7 28 15.4
003A59BD 2019-04-20 04:40:46 15.7 28 15.1
003A59BD 2019-04-20 04:06:55 15.7 28 14.9
003A59BD 2019-04-20 03:33:03 15.8 28 14.9
003A59BD 2019-04-20 02:59:13 15.9 28 15
003A59BD 2019-04-20 02:25:21 15.9 28 15.1
003A59BD 2019-04-20 01:51:33 15.9 28 15
003A59BD 2019-04-20 01:17:40 15.9 28 14.9
003A59BD 2019-04-20 00:43:50 15.9 28 14.9
003A59BD 2019-04-20 00:09:59 15.9 28 14.8
003A59BD 2019-04-19 23:36:09 15.9 28 15
003A59BD 2019-04-19 23:02:18 15.9 28 15.1
003A59BD 2019-04-19 22:28:27 15.9 28 15.2
003A59BD 2019-04-19 21:54:36 15.9 28 15.4
003A59BD 2019-04-19 21:20:46 16 28 15.2
003A59BD 2019-04-19 20:46:56 15.9 28 15.4
003A59BD 2019-04-19 20:13:06 16 28 15.3
003A59BD 2019-04-19 19:39:14 16 28 15.4
003A59BD 2019-04-19 19:05:23 15.9 28 15.5
003A59BD 2019-04-19 18:31:31 15.9 28 15.7
003A59BD 2019-04-19 17:57:40 15.9 28 15.7
003A59BD 2019-04-19 17:23:49 15.9 28 15.7
003A59BD 2019-04-19 16:49:58 15.9 28 15.7
003A59BD 2019-04-19 16:16:07 15.9 28 15.7
003A59BD 2019-04-19 15:42:15 15.9 28 15.9
003A59BD 2019-04-19 15:08:23 15.9 28 15.9
003A59BD 2019-04-19 14:34:32 15.9 28 16
003A59BD 2019-04-19 14:00:44 15.7 28 16.1
003A59BD 2019-04-19 13:26:51 15.7 28 16
003A59BD 2019-04-19 12:53:00 15.7 28 16
003A59BD 2019-04-19 12:19:09 15.8 27 16
003A59BD 2019-04-19 11:45:18 15.8 27 16.1
003A59BD 2019-04-19 11:11:27 15.8 27 16.1
003A59BD 2019-04-19 10:37:34 15.8 27 16.2
003A59BD 2019-04-19 10:03:42 15.9 27 16.3
003A59BD 2019-04-19 09:29:50 15.9 27 16.2
003A59BD 2019-04-19 08:55:59 15.9 27 16.5
003A59BD 2019-04-19 08:22:07 15.9 27 16.6
003A59BD 2019-04-19 07:48:14 15.9 27 16.8
003A59BD 2019-04-19 07:14:23 15.9 27 17.4
003A59BD 2019-04-19 06:40:30 15.9 27 17.7
003A59BD 2019-04-19 06:06:39 15.9 27 18.3
003A59BD 2019-04-19 05:32:48 16 27 18.9
003A59BD 2019-04-19 04:58:56 16 27 19.4
003A59BD 2019-04-19 04:25:04 16.1 27 20.1
003A59BD 2019-04-19 03:51:13 16.1 27 20.6
003A59BD 2019-04-19 03:17:21 16.1 27 21
003A59BD 2019-04-19 02:43:30 16.1 27 21.1
003A59BD 2019-04-19 02:09:40 16.1 27 21.3
003A59BD 2019-04-19 01:35:46 16.3 27 21.5
003A59BD 2019-04-19 01:01:54 16.3 27 22
003A59BD 2019-04-19 00:28:01 16.3 27 22.2
003A59BD 2019-04-18 23:54:11 16.3 27 22.4
003A59BD 2019-04-18 23:20:16 16.4 27 22.5
003A59BD 2019-04-18 22:46:23 16.4 27 22.7
003A59BD 2019-04-18 22:12:31 16.5 27 22.7
003A59BD 2019-04-18 21:38:37 16.5 27 23
003A59BD 2019-04-18 21:04:44 16.5 27 23
003A59BD 2019-04-18 20:30:51 16.5 27 22.9
003A59BD 2019-04-18 19:56:57 16.5 27 22.9
003A59BD 2019-04-18 19:23:05 16.4 27 22.9
003A59BD 2019-04-18 18:49:12 16.4 27 22.8
003A59BD 2019-04-18 18:15:18 16.4 27 22.7
003A59BD 2019-04-18 17:41:25 16.3 27 22.6
003A59BD 2019-04-18 17:07:32 16.3 27 22.4
003A59BD 2019-04-18 16:33:39 16.3 27 22.4
003A59BD 2019-04-18 15:59:46 16.3 27 22.5
003A59BD 2019-04-18 15:25:54 16.2 27 22.4
003A59BD 2019-04-18 14:52:01 16.1 26 22.3
003A59BD 2019-04-18 14:18:10 16.1 26 21.9
003A59BD 2019-04-18 13:44:18 16.1 26 21.7
003A59BD 2019-04-18 13:10:25 16.1 26 21.6
003A59BD 2019-04-18 12:36:34 16.1 26 21.7
003A59BD 2019-04-18 12:02:43 16.1 26 21.7
003A59BD 2019-04-18 11:28:53 16.1 26 21.7
003A59BD 2019-04-18 10:55:02 16.1 26 21.4
003A59BD 2019-04-18 10:21:10 16.1 26 21.4
003A59BD 2019-04-18 09:47:20 16.1 26 21.4
003A59BD 2019-04-18 09:13:29 16.2 26 21.5
003A59BD 2019-04-18 08:39:39 16.3 26 21.4
003A59BD 2019-04-18 08:05:48 16.3 26 21.5
003A59BD 2019-04-18 07:31:57 16.3 26 21.2
003A59BD 2019-04-18 06:58:08 16.3 26 21.2
003A59BD 2019-04-18 06:24:22 16.3 26 21.3
003A59BD 2019-04-18 02:27:22 16.4 25 22.4
003A59BD 2019-04-18 01:53:32 16.5 25 22.6
003A59BD 2019-04-18 01:19:45 16.5 25 22.6
003A59BD 2019-04-18 00:45:50 16.7 25 22.8
003A59BD 2019-04-18 00:11:59 16.8 25 22.9
003A59BD 2019-04-17 23:38:10 16.7 25 23
003A59BD 2019-04-17 23:04:17 16.8 25 23.2
003A59BD 2019-04-17 22:30:26 16.7 25 23
003A59BD 2019-04-17 21:56:34 16.8 25 22.9
003A59BD 2019-04-17 21:22:43 16.7 25 22.8
003A59BD 2019-04-17 20:48:53 16.7 25 22.9
003A59BD 2019-04-17 20:15:02 16.7 25 22.8
003A59BD 2019-04-17 19:41:10 16.7 25 22.8
003A59BD 2019-04-17 19:07:18 16.8 25 22.7
003A59BD 2019-04-17 18:33:26 16.7 25 22.6
003A59BD 2019-04-17 17:59:35 16.8 25 22.6
003A59BD 2019-04-17 17:25:43 16.8 24 22.5
003A59BD 2019-04-17 16:51:51 16.8 24 22.4
003A59BD 2019-04-17 16:17:57 16.8 24 22.3
003A59BD 2019-04-17 15:44:06 16.8 24 22.3
003A59BD 2019-04-17 15:10:14 16.8 24 22.3
003A59BD 2019-04-17 14:36:22 16.8 24 22.2
003A59BD 2019-04-17 14:02:32 17 24 22.4
003A59BD 2019-04-17 13:28:41 17 24 22.6
003A59BD 2019-04-17 12:54:50 17 24 22.7
003A59BD 2019-04-17 12:20:58 17 24 21.7
003A59BD 2019-04-17 11:47:08 17 24 21.7
003A59BD 2019-04-17 11:13:17 17 24 21.6
003A59BD 2019-04-17 10:39:26 17.1 23 21.5
003A59BD 2019-04-17 10:05:34 17.2 23 21.4
003A59BD 2019-04-17 09:31:43 17.2 23 21.3
003A59BD 2019-04-17 08:57:52 17.4 23 20.7
003A59BD 2019-04-17 08:24:00 17.6 23 20.7
003A59BD 2019-04-17 07:50:09 17.6 23 20.6
003A59BD 2019-04-17 07:16:19 17.8 23 20.8
003A59BD 2019-04-17 06:42:29 17.8 23 20.8
003A59BD 2019-04-17 06:08:38 18 23 20.8
003A59BD 2019-04-17 05:34:47 18 23 20.5
003A59BD 2019-04-17 05:00:56 18 23 20.4
003A59BD 2019-04-17 04:27:03 18 23 20.3
003A59BD 2019-04-17 03:53:11 18.3 23 20.1
003A59BD 2019-04-17 03:19:21 18.3 23 19.9
003A59BD 2019-04-17 02:45:29 18.3 23 19.7
003A59BD 2019-04-17 02:11:39 18.4 23 19.6
003A59BD 2019-04-17 01:37:48 18.4 23 19.4
003A59BD 2019-04-17 01:03:57 18.4 23 19
003A59BD 2019-04-17 00:30:08 18.5 23 18.9
003A59BD 2019-04-16 23:56:18 18.5 23 18.6
003A59BD 2019-04-16 23:22:27 18.5 22 18
003A59BD 2019-04-16 22:48:37 18.7 22 17.4
003A59BD 2019-04-16 22:14:45 18.9 22 17.4
003A59BD 2019-04-16 21:40:54 19.1 22 17.5
003A59BD 2019-04-16 21:07:03 19.2 22 17.3
003A59BD 2019-04-16 20:33:12 19.3 23 17.7
003A59BD 2019-04-16 19:59:22 19.4 23 17.7
003A59BD 2019-04-16 19:25:30 19.5 22 17.8
003A59BD 2019-04-16 18:51:39 19.5 22 18.2
003A59BD 2019-04-16 18:17:48 19.7 22 18.6
003A59BD 2019-04-16 17:43:57 19.8 22 18.6
003A59BD 2019-04-16 16:02:20 20.2 22 18.3
003A59BD 2019-04-16 15:28:26 20.4 22 18.2
003A59BD 2019-04-16 14:54:32 20.6 22 18
003A59BD 2019-04-16 13:46:44 20.9 23 18.2
003A59BD 2019-04-16 13:12:50 20.8 24 18.4
003A59BD 2019-04-16 12:38:56 20.8 24 18.4
003A59BD 2019-04-16 12:05:02 20.8 24 18.6
003A59BD 2019-04-16 11:31:09 20.6 24 18.8
003A59BD 2019-04-16 10:57:16 20.6 24 18.7
003A59BD 2019-04-16 10:23:22 20.6 24 18.8
003A59BD 2019-04-16 09:49:30 20.6 24 19
003A59BD 2019-04-16 09:15:36 20.6 24 19
003A59BD 2019-04-16 08:41:45 20.6 24 19.2
003A59BD 2019-04-16 08:07:49 20.6 24 19.3
003A59BD 2019-04-16 07:33:55 20.6 23 19.3
003A59BD 2019-04-16 07:00:01 20.6 23 19.5
003A59BD 2019-04-16 06:26:09 20.6 23 19.6
003A59BD 2019-04-16 05:52:16 20.6 23 19.3
003A59BD 2019-04-16 05:18:24 20.6 23 19.5
003A59BD 2019-04-16 04:44:32 20.6 23 19.3
003A59BD 2019-04-16 04:10:39 20.6 23 19.5
003A59BD 2019-04-16 03:36:45 20.6 23 19.7
003A59BD 2019-04-16 03:02:52 20.6 23 19.5
003A59BD 2019-04-16 02:28:57 20.6 23 19.5
003A59BD 2019-04-16 01:55:05 20.7 23 20.9
003A59BD 2019-04-16 01:21:09 20.6 22 21.4
003A59BD 2019-04-16 00:47:14 20.6 22 21.6
003A59BD 2019-04-16 00:13:20 20.6 22 21.8
003A59BD 2019-04-15 23:39:25 20.7 22 22.2
003A59BD 2019-04-15 23:05:31 20.7 22 22.4
003A59BD 2019-04-15 22:31:39 20.8 22 22.7
003A59BD 2019-04-15 21:57:44 20.8 22 22.9
003A59BD 2019-04-15 21:23:51 20.8 22 22.9
003A59BD 2019-04-15 20:49:57 20.8 21 23.1
003A59BD 2019-04-15 20:16:04 20.9 21 23.2
003A59BD 2019-04-15 19:42:10 20.9 21 23.8
003A59BD 2019-04-15 19:08:16 21 21 24
003A59BD 2019-04-15 18:34:27 21.1 21 24.6
003A59BD 2019-04-15 18:00:28 21 20 24.7
003A59BD 2019-04-15 17:26:35 21.2 20 24.8
003A59BD 2019-04-15 16:18:50 21.3 20 25.3
003A59BD 2019-04-15 15:44:56 21.5 19 25.5
003A59BD 2019-04-15 15:11:03 21.5 19 25.7
003A59BD 2019-04-15 14:03:15 21.9 18 26.1
003A59BD 2019-04-15 12:55:27 22.2 17 26.1
003A59BD 2019-04-15 12:21:32 22.4 17 26.5
003A59BD 2019-04-15 11:47:37 22.5 16 26.5
003A59BD 2019-04-15 11:13:42 22.5 15 26.6
003A59BD 2019-04-15 10:39:47 22.4 16 26.7
003A59BD 2019-04-15 10:05:53 22.3 16 26.5
003A59BD 2019-04-15 09:31:58 22.3 16 26.4
003A59BD 2019-04-15 08:58:03 22.2 16 26.7
003A59BD 2019-04-15 08:24:09 22.1 16 26.7
003A59BD 2019-04-15 07:50:14 22 16 26.6
003A59BD 2019-04-15 07:16:18 21.9 16 26.6
003A59BD 2019-04-15 06:42:23 21.9 16 26.6
003A59BD 2019-04-15 06:08:28 21.9 16 26.6
003A59BD 2019-04-15 05:34:33 21.9 16 26.8
003A59BD 2019-04-15 05:00:39 21.9 17 27.1
003A59BD 2019-04-15 04:26:46 21.9 17 27.2
003A59BD 2019-04-15 03:52:52 21.9 17 27.2
003A59BD 2019-04-15 03:18:59 21.9 17 27.2
003A59BD 2019-04-15 02:45:06 21.9 17 27.2
003A59BD 2019-04-15 02:11:13 21.9 17 27.2
003A59BD 2019-04-15 01:37:20 21.9 17 27.2
003A59BD 2019-04-15 01:03:25 21.9 17 27
003A59BD 2019-04-15 00:29:31 21.9 17 27
003A59BD 2019-04-14 23:55:38 21.9 17 27
003A59BD 2019-04-14 23:21:44 21.8 17 26.7
003A59BD 2019-04-14 22:47:51 21.9 17 26.7
003A59BD 2019-04-14 22:13:56 21.9 17 26.5
003A59BD 2019-04-14 21:40:03 21.9 17 26.4
003A59BD 2019-04-14 21:06:10 22 17 26.4
003A59BD 2019-04-14 20:32:15 22 17 26.4
003A59BD 2019-04-14 19:58:21 22.1 18 26.3
003A59BD 2019-04-14 19:24:28 22.1 17 26.3
003A59BD 2019-04-14 18:50:35 22.1 17 26.1
003A59BD 2019-04-14 18:16:41 22.1 17 26.1
003A59BD 2019-04-14 17:42:46 22 17 26
003A59BD 2019-04-14 17:08:53 21.9 17 26
003A59BD 2019-04-14 16:34:58 21.9 17 26
003A59BD 2019-04-14 16:01:05 21.9 17 26.2
003A59BD 2019-04-14 15:27:12 21.9 17 26
003A59BD 2019-04-14 14:53:17 21.9 17 25.8
003A59BD 2019-04-14 14:19:25 21.9 17 25.8
003A59BD 2019-04-14 13:45:31 21.9 17 25.4
003A59BD 2019-04-14 13:11:38 22 18 25.4
003A59BD 2019-04-14 12:37:44 21.9 18 25
003A59BD 2019-04-14 12:03:48 21.9 18 25.1
003A59BD 2019-04-14 11:29:54 21.9 18 25.2
003A59BD 2019-04-14 10:55:59 21.9 18 25.2
003A59BD 2019-04-14 10:22:04 21.9 18 25.2
003A59BD 2019-04-14 09:48:11 21.9 18 25.1
003A59BD 2019-04-14 09:14:17 21.9 18 25.1
003A59BD 2019-04-14 08:40:23 21.9 17 25.2
003A59BD 2019-04-14 08:06:30 21.9 17 25.3
003A59BD 2019-04-14 07:32:36 21.9 17 25.4
003A59BD 2019-04-14 06:58:43 21.9 17 25.5
003A59BD 2019-04-14 06:24:49 21.9 17 25.8
003A59BD 2019-04-14 05:50:56 21.9 17 25.9
003A59BD 2019-04-14 05:17:03 21.9 17 25.8
003A59BD 2019-04-14 04:43:11 21.9 17 25.8
003A59BD 2019-04-14 04:09:18 21.9 17 26.1
003A59BD 2019-04-14 03:35:26 21.9 17 26.2
003A59BD 2019-04-14 03:01:35 21.9 17 26.1
003A59BD 2019-04-14 02:27:44 21.9 17 26
003A59BD 2019-04-14 01:53:51 21.9 17 25.8
003A59BD 2019-04-14 01:19:58 22 17 25.9
003A59BD 2019-04-14 00:46:05 22.1 17 25.7
003A59BD 2019-04-14 00:12:13 22.1 17 25.6
003A59BD 2019-04-13 23:38:20 22.1 17 25.6
003A59BD 2019-04-13 23:04:26 22.1 17 25.7
003A59BD 2019-04-13 22:30:34 22.1 17 25.9
003A59BD 2019-04-13 21:56:40 22.1 17 25.8
003A59BD 2019-04-13 21:22:47 22.2 17 25.7
003A59BD 2019-04-13 20:48:55 22.1 17 25.8
003A59BD 2019-04-13 20:15:02 22.1 17 25.8
003A59BD 2019-04-13 19:41:08 22.1 17 25.8
003A59BD 2019-04-13 19:07:15 22.2 17 25.8
003A59BD 2019-04-13 18:33:20 22.1 17 25.8
003A59BD 2019-04-13 17:59:27 22.2 17 25.7
003A59BD 2019-04-13 17:25:33 22.4 17 25.7
003A59BD 2019-04-13 16:51:40 22.3 17 25.7
003A59BD 2019-04-13 16:17:47 22.4 17 25.3
003A59BD 2019-04-13 15:43:54 22.3 17 25.5
003A59BD 2019-04-13 15:10:01 22.3 17 25.5
003A59BD 2019-04-13 14:36:08 22.3 17 25.6
003A59BD 2019-04-13 14:02:14 22.3 17 25.4
003A59BD 2019-04-13 13:28:20 22.3 17 25.4
003A59BD 2019-04-13 12:54:26 22.4 17 25.4
003A59BD 2019-04-13 12:20:32 22.4 17 25.4
003A59BD 2019-04-13 11:46:38 22.3 17 25.5
003A59BD 2019-04-13 11:12:44 22.4 17 25.5
003A59BD 2019-04-13 10:38:51 22.4 17 25.6
003A59BD 2019-04-13 10:04:58 22.3 17 25.7
003A59BD 2019-04-13 09:31:04 22.3 17 25.8
003A59BD 2019-04-13 08:57:11 22.3 17 25.9
003A59BD 2019-04-13 08:23:16 22.3 17 25.6
003A59BD 2019-04-13 07:49:22 22.3 17 25.9
003A59BD 2019-04-13 07:15:28 22.3 17 26
003A59BD 2019-04-13 06:41:35 22.3 17 25.9
003A59BD 2019-04-13 06:07:41 22.3 17 26
003A59BD 2019-04-13 05:33:47 22.4 17 25.9
003A59BD 2019-04-13 04:59:53 22.3 17 25.9
003A59BD 2019-04-13 04:25:59 22.3 17 26.2
003A59BD 2019-04-13 03:52:06 22.4 16 26.4
003A59BD 2019-04-13 03:18:11 22.5 17 26.4
003A59BD 2019-04-13 02:44:16 22.5 17 26.4
003A59BD 2019-04-13 02:10:21 22.5 17 26.5
003A59BD 2019-04-13 01:36:26 22.6 17 26.4
003A59BD 2019-04-13 01:02:32 22.5 17 26.5
003A59BD 2019-04-13 00:28:37 22.6 17 26.4
003A59BD 2019-04-12 23:54:43 22.6 17 26.4
003A59BD 2019-04-12 23:20:47 22.6 17 26.4
003A59BD 2019-04-12 22:46:52 22.7 17 26.6
003A59BD 2019-04-12 22:12:56 22.8 18 26.7
003A59BD 2019-04-12 21:39:01 22.8 18 26.9
003A59BD 2019-04-12 21:05:06 22.9 18 26.9
003A59BD 2019-04-12 20:31:10 22.9 17 27
003A59BD 2019-04-12 19:57:16 22.8 17 27.1
003A59BD 2019-04-12 19:23:21 22.9 17 27.1
003A59BD 2019-04-12 18:49:26 22.9 16 27
003A59BD 2019-04-12 18:15:31 23 16 27.2
003A59BD 2019-04-12 17:41:36 23.2 16 27
003A59BD 2019-04-12 17:07:41 23.3 17 26.9
003A59BD 2019-04-12 16:33:47 23.3 17 27.2
003A59BD 2019-04-12 15:59:52 23.2 18 27.3
003A59BD 2019-04-12 15:25:56 23.2 18 27.7
003A59BD 2019-04-12 14:52:03 23.1 19 28.7
003A59BD 2019-04-12 14:18:08 22.8 19 27.9
003A59BD 2019-04-12 13:44:14 22.3 20 23.9
003A59BD 2019-04-12 13:10:19 21.2 24 0